Location: Leeds
(37.2390°N, 113.3580°W)
Time: 20:46:43
(UTC-07:00)

ISS - All Passes

Search period start: 22 December 2014 00:00
Search period end: 01 January 2015 00:00
Orbit: 404 x 414 km, 51.6° (Epoch: 22 December)

Date Brightness Start Highest point End Pass type
(mag) Time Alt. Az. Time Alt. Az. Time Alt. Az.
22 Dec - 11:45:10 10° SE 11:45:29 10° SE 11:45:47 10° ESE daylight
22 Dec - 13:18:19 10° WSW 13:21:37 69° NW 13:24:55 10° NE daylight
22 Dec - 14:57:06 10° NW 14:58:42 13° NNW 15:00:18 10° N daylight
22 Dec - 18:13:13 10° N 18:14:27 12° NNE 18:15:41 10° NE visible
22 Dec - 19:48:23 10° NW 19:51:37 56° NE 19:54:49 10° ESE visible
22 Dec - 21:26:25 10° WSW 21:27:49 12° SW 21:29:12 10° SSW night (unlit)
23 Dec - 12:27:34 10° SW 12:30:48 57° SE 12:34:04 10° ENE daylight
23 Dec - 14:05:14 10° WNW 14:07:37 18° NNW 14:10:00 10° NNE daylight
23 Dec - 18:57:43 10° NNW 19:00:42 31° NNE 19:03:39 10° E visible
23 Dec - 20:34:28 10° WNW 20:37:10 24° SW 20:39:50 10° S visible
24 Dec - 11:37:09 10° SSW 11:40:02 28° SE 11:42:55 10° ENE daylight
24 Dec - 13:13:40 10° W 13:16:34 28° NNW 13:19:29 10° NNE daylight
24 Dec - 18:07:10 10° NNW 18:09:39 20° NNE 18:12:08 10° ENE visible
24 Dec - 19:43:13 10° WNW 19:46:24 48° SW 19:49:32 10° SSE visible
25 Dec - 10:47:23 10° SSE 10:49:18 15° SE 10:51:12 10° E daylight
25 Dec - 12:22:20 10° WSW 12:25:33 48° NW 12:28:47 10° NE daylight
25 Dec - 14:01:47 10° NW 14:02:46 11° NNW 14:03:45 10° N daylight
25 Dec - 17:16:43 10° N 17:18:30 14° NNE 17:20:16 10° NE daylight
25 Dec - 18:52:14 10° NW 18:55:31 81° NE 18:58:46 10° SE visible
26 Dec - 11:31:17 10° SW 11:34:35 84° SE 11:37:54 10° NE daylight
26 Dec - 13:09:30 10° WNW 13:11:32 15° NNW 13:13:33 10° NNE daylight
26 Dec - 16:26:52 10° N 16:27:14 10° NNE 16:27:35 10° NNE daylight
26 Dec - 18:01:22 10° NW 18:04:31 41° NE 18:07:37 10° ESE visible
26 Dec - 19:38:38 10° W 19:40:50 17° SW 19:43:01 10° S visible
27 Dec - 10:40:32 10° SSW 10:43:39 40° SE 10:46:46 10° ENE daylight
27 Dec - 12:17:39 10° W 12:20:19 22° NNW 12:22:59 10° NNE daylight
27 Dec - 17:10:37 10° NNW 17:13:23 24° NNE 17:16:08 10° E daylight
27 Dec - 18:46:59 10° WNW 18:49:59 33° SW 18:52:57 10° SSE visible
28 Dec - 09:50:14 10° S 09:52:45 20° SE 09:55:16 10° E daylight
28 Dec - 11:26:03 10° WSW 11:29:08 36° NW 11:32:14 10° NE daylight
28 Dec - 16:19:58 10° NNW 16:22:08 16° NNE 16:24:19 10° ENE daylight
28 Dec - 17:55:45 10° NW 17:59:01 70° SW 18:02:15 10° SE visible
29 Dec - 09:01:22 10° SE 09:01:52 10° SE 09:02:23 10° ESE daylight
29 Dec - 10:34:42 10° WSW 10:38:00 68° NW 10:41:18 10° NE daylight
29 Dec - 12:13:29 10° NW 12:15:04 13° NNW 12:16:39 10° N daylight
29 Dec - 15:29:30 10° N 15:30:47 12° NNE 15:32:03 10° NE daylight
29 Dec - 17:04:41 10° NW 17:07:55 57° NE 17:11:08 10° ESE daylight
29 Dec - 18:42:45 10° WSW 18:44:06 12° SW 18:45:27 10° SSW visible
30 Dec - 09:43:39 10° SW 09:46:54 58° SE 09:50:09 10° ENE daylight
30 Dec - 11:21:19 10° WNW 11:23:41 18° NNW 11:26:04 10° NNE daylight
30 Dec - 16:13:44 10° NNW 16:16:43 31° NNE 16:19:40 10° E daylight
30 Dec - 17:50:28 10° WNW 17:53:09 24° SW 17:55:50 10° S visible
31 Dec - 08:52:58 10° SSW 08:55:50 28° SE 08:58:43 10° ENE daylight
31 Dec - 10:29:27 10° W 10:32:21 28° NNW 10:35:16 10° NNE daylight
31 Dec - 15:22:53 10° NNW 15:25:23 20° NNE 15:27:52 10° ENE daylight
31 Dec - 16:58:55 10° WNW 17:02:06 48° SW 17:05:16 10° SSE daylight
